Volver al catálogo

ONEWEB-0022

ActivoComunicacionesPO
NORAD 45135·PAYLOAD·🇬🇧 United Kingdom

Lanzado Feb 6, 2020 desde Baikonur Cosmodrome

Loading…

Próximos Pases (próximas 24 horas)

TLE

ActualizadoSource: Space-Track

Época: Sep 14, 2026, 06:55 UTC

1 45135U 20008E   26257.28869624 -.00000602  00000-0 -17575-2 0  9992
2 45135  87.8909  18.5745 0001453  94.1881 265.9412 13.10493314320020

Sigue ONEWEB-0022 en tiempo real con AllMySat

Download on the App Store